[[{"header":{"parameterUnit":"m.s-1","parameterCategory":1,"la1":30.2991,"la2":30.254,"lo1":-89.0895,"lo2":-89.0444,"dy":0.0017,"dx":0.0017,"nx":28,"ny":28,"refTime":"2025-07-30T21:00:00:Z","depth":0,"parameterNumber":2,"parameterNumberName":"U-component_of_WINDS"},"data":[0,0,0,0,0,0,0,0,0,0,0,0,0,0,0,0,0,0,0,0,0,0,0,0,0,0,0,0,0,0,0,0,0,0,0,0,0,0,0,0,0,0,0,0,0,0,0,0,0,0,0,0,0,0,0,0,0,0,3.3718,3.3719,0,3.3808,3.3809,3.381,3.3731,3.3728,3.3725,3.3722,3.3816,3.3821,3.3827,0,0,0,0,0,0,0,0,0,0,0,0,0,3.3476,3.3481,3.3718,3.3719,3.372,3.3808,3.3809,3.3811,3.3732,3.3728,3.3724,3.372,3.3814,3.3821,3.3827,0,0,0,0,0,0,0,0,0,0,0,0,0,3.3576,3.3483,3.3718,3.3691,3.369,3.3808,3.381,3.3811,3.3733,3.3728,3.3723,3.3718,3.3812,3.382,3.3828,3.3977,0,0,3.3854,3.3857,0,0,0,0,0,0,0,0,3.357,3.3585,3.3694,3.3693,3.3692,3.3754,3.3759,3.3867,3.3734,3.3717,3.3722,3.3716,3.3799,3.3808,3.3836,3.3982,3.3986,3.3855,3.386,3.3863,3.3865,0,0,0,0,0,0,0,3.3563,3.358,3.3754,3.3696,3.3694,3.3675,3.3684,3.3779,3.3784,3.3718,3.3712,3.3724,3.3798,3.3828,3.3838,3.3987,3.3854,3.3862,3.3867,3.387,3.4257,3.4262,0,0,0,0,0,0,3.3559,3.3575,3.3751,3.3756,3.3618,3.3683,3.3693,3.3739,3.3783,3.3785,3.3728,3.372,3.3817,3.3828,3.3841,3.4016,3.3863,3.3871,3.3876,3.4252,3.4258,3.4264,0,0,0,0,0,0,3.3554,3.3576,3.3747,3.3664,3.3685,3.3693,3.3745,3.3743,3.3773,3.3791,3.3791,3.3758,3.3813,3.3829,3.3943,3.4018,3.3875,3.3882,3.4246,3.4254,3.4261,3.4369,0,0,0,0,0,0,3.3548,3.3574,3.3631,3.3666,3.3689,3.3848,3.3749,3.3748,3.3788,3.3778,3.3819,3.3821,3.3811,3.3931,3.3952,3.4027,3.3889,3.4239,3.4249,3.4259,3.4358,3.4379,3.4397,0,0,0,0,0,3.3539,3.3659,3.3634,3.3656,3.376,3.3853,3.3866,3.3851,3.3794,3.3851,3.3862,3.382,3.4007,3.3944,3.3966,3.4045,3.4234,3.4246,3.4258,3.435,3.4375,3.4397,0,0,0,0,0,0,3.3633,3.3663,3.3636,3.377,3.381,3.3839,3.391,3.3879,3.3935,3.3924,3.3903,3.3913,3.4033,3.4051,3.3979,3.419,3.4111,3.4128,3.4174,3.4198,3.4217,3.4209,3.3896,0,0,0,0,0,3.3669,3.3742,3.3764,3.388,3.3901,3.3903,3.3942,3.3927,3.3967,3.3983,3.4003,3.4043,3.4111,3.4156,3.4219,3.4361,3.4368,3.4427,3.4446,3.4462,3.4476,3.455,3.4575,3.4303,3.4303,3.4303,0,0,3.3745,3.377,3.3817,3.3899,3.3928,3.4003,3.3917,3.4001,3.4056,3.3996,3.4104,3.412,3.4164,3.4292,3.435,3.4311,3.4553,3.4477,3.4489,3.4495,3.4565,3.459,3.4613,3.4311,3.431,3.4308,0,0,3.392,3.3948,3.4046,3.4076,3.412,3.412,3.4144,3.4178,3.4186,3.4294,3.425,3.4316,3.4434,3.4466,3.4498,3.4684,3.4647,3.4706,3.4806,3.4878,3.49,3.4919,3.4983,3.5006,3.472,3.4721,3.4721,0,3.4008,3.4119,3.4101,3.4187,3.4223,3.4172,3.4271,3.4302,3.4365,3.4391,3.4347,3.4491,3.4518,3.4651,3.4696,3.4725,3.475,3.47,3.4898,3.4917,3.4934,3.4995,3.5019,3.4727,3.4726,3.4726,3.4725,0,3.4224,3.4302,3.4376,3.4436,3.4482,3.4574,3.4569,3.4618,3.4599,3.4603,3.4713,3.4743,3.481,3.4841,3.4824,3.4972,3.4946,3.4901,3.4821,3.4967,3.5024,3.5047,3.4737,3.4734,3.4732,3.4731,0,0,3.446,3.4508,3.4536,3.4561,3.4606,3.4665,3.4755,3.482,3.4861,3.4906,3.498,3.508,3.5037,3.5073,3.5059,3.5124,3.5266,3.5069,3.507,3.5103,3.5428,3.546,3.5488,3.5243,3.5247,3.5251,3.5424,0,3.4635,3.4789,3.4775,3.4922,3.4992,3.4944,3.5022,3.5058,3.5065,3.5125,3.5133,3.5203,3.5143,3.5164,3.5225,3.5236,3.5331,3.5223,3.5309,3.5313,3.5297,3.5518,3.5553,3.5714,3.5446,3.545,3.5453,0,3.4859,3.491,3.5064,3.5096,3.5125,3.5195,3.5252,3.5311,3.535,3.535,3.539,3.5365,3.5455,3.5374,3.5496,3.5424,3.5458,3.5469,3.5475,3.548,3.539,3.5527,3.5766,3.5789,3.5488,3.5485,3.5482,0,3.5012,3.512,3.5225,3.5249,3.529,3.534,3.5359,3.5393,3.5433,3.5483,3.5508,3.5569,3.5602,3.565,3.5641,3.5584,3.5765,3.5685,3.5766,3.5767,3.5805,3.5802,3.605,3.5832,3.5832,3.5831,3.5831,0,3.5207,3.5302,3.5294,3.5359,3.5463,3.5446,3.555,3.5563,3.5594,3.566,3.5624,3.5686,3.5672,3.5734,3.5729,3.5829,3.5845,3.5847,3.5844,3.5849,3.5848,3.5869,3.5857,3.5838,3.5836,3.5835,3.5834,0,3.5395,3.5394,3.5504,3.5534,3.5543,3.5619,3.5643,3.5704,3.5707,3.5791,3.5809,3.5816,3.5887,3.5883,3.5965,3.596,3.6083,3.6069,3.607,3.6066,3.6147,3.6138,3.6415,3.645,3.6211,3.6213,3.6215,0,3.5518,3.559,3.5626,3.5667,3.5689,3.5756,3.5796,3.5782,3.5824,3.5873,3.5928,3.5995,3.6048,3.6164,3.6175,3.6237,3.6221,3.6314,3.623,3.6232,3.622,3.6214,3.622,3.633,3.6333,3.6335,3.6337,0,3.5736,3.5732,3.579,3.5848,3.5896,3.5941,3.5982,3.6018,3.6008,3.6058,3.6129,3.6171,3.6252,3.6319,3.6378,3.6397,3.6365,3.6363,3.6385,3.6389,3.6386,3.6386,3.6112,3.6357,3.6355,3.6353,3.6352,3.6351,3.5894,3.5954,3.5989,3.6054,3.6084,3.6123,3.618,3.619,3.625,3.6314,3.6303,3.6383,3.6419,3.6493,3.6519,3.658,3.6547,3.6579,3.6587,3.6595,3.6602,3.6378,3.6591,3.6591,3.659,3.659,3.659,0,3.6107,3.6127,3.6188,3.6245,3.6297,3.6263,3.6306,3.6351,3.6421,3.6458,3.651,3.6591,3.6656,3.6672,3.6734,3.678,3.6767,3.6797,3.6792,3.6796,3.663,3.6604,3.6806,3.6806,3.6806,3.6806,3.6806,3.6806,3.6224,3.6324,3.6324,3.6437,3.6456,3.6533,3.6561,3.6596,3.6624,3.6716,3.6769,3.678,3.6808,3.6871,3.6928,3.6931,3.6955,3.699,3.6987,3.683,3.6809,3.6788,3.6763,3.6996,3.6996,3.7148,3.7149,3.715]},{"header":{"parameterUnit":"m.s-1","parameterCategory":1,"la1":30.2991,"la2":30.254,"lo1":-89.0895,"lo2":-89.0444,"dy":0.0017,"dx":0.0017,"nx":28,"ny":28,"refTime":"2025-07-30T21:00:00:Z","depth":0,"parameterNumber":3,"parameterNumberName":"V-component_of_WINDS"},"data":[0,0,0,0,0,0,0,0,0,0,0,0,0,0,0,0,0,0,0,0,0,0,0,0,0,0,0,0,0,0,0,0,0,0,0,0,0,0,0,0,0,0,0,0,0,0,0,0,0,0,0,0,0,0,0,0,0,0,2.2296,2.2297,0,2.2356,2.2357,2.2357,2.2338,2.2336,2.2335,2.2334,2.2393,2.2396,2.2399,0,0,0,0,0,0,0,0,0,0,0,0,0,2.2162,2.2165,2.2296,2.2297,2.2298,2.2356,2.2357,2.2357,2.2338,2.2336,2.2335,2.2333,2.2392,2.2396,2.2399,0,0,0,0,0,0,0,0,0,0,0,0,0,2.2221,2.2166,2.2296,2.2295,2.2295,2.2356,2.2357,2.2358,2.2338,2.2336,2.2334,2.2333,2.2391,2.2395,2.2399,2.2463,0,0,2.2412,2.2414,0,0,0,0,0,0,0,0,2.2218,2.2226,2.2294,2.2295,2.2296,2.2337,2.2331,2.2393,2.2339,2.2322,2.2334,2.2332,2.2376,2.2381,2.2397,2.2466,2.2469,2.2412,2.2415,2.2417,2.2418,0,0,0,0,0,0,0,2.2214,2.2223,2.232,2.2295,2.2296,2.2291,2.2297,2.2343,2.2359,2.2323,2.2322,2.2329,2.2376,2.2393,2.2398,2.247,2.2412,2.2416,2.2418,2.242,2.2592,2.2594,0,0,0,0,0,0,2.221,2.222,2.2318,2.2321,2.2251,2.2295,2.2301,2.2326,2.2358,2.2362,2.2331,2.2328,2.2387,2.2393,2.24,2.2476,2.2417,2.2421,2.2423,2.259,2.2593,2.2595,0,0,0,0,0,0,2.2207,2.2218,2.2315,2.227,2.2282,2.2299,2.2327,2.2328,2.2345,2.2364,2.2367,2.2345,2.2385,2.2394,2.2447,2.2478,2.2422,2.2426,2.2588,2.2591,2.2594,2.2629,0,0,0,0,0,0,2.2203,2.2218,2.2243,2.2271,2.2285,2.2363,2.2328,2.2331,2.2352,2.2349,2.2378,2.2381,2.2384,2.2441,2.2452,2.2482,2.2429,2.2585,2.2589,2.2593,2.2625,2.2633,2.2639,0,0,0,0,0,2.2198,2.225,2.2244,2.2256,2.2317,2.2365,2.2372,2.2376,2.2355,2.238,2.2392,2.238,2.2473,2.2447,2.2458,2.2491,2.2583,2.2588,2.2593,2.2622,2.2631,2.2639,0,0,0,0,0,0,2.2225,2.2254,2.2248,2.2311,2.2335,2.2361,2.2393,2.2386,2.2416,2.2412,2.2414,2.2421,2.2475,2.2488,2.2459,2.2553,2.2525,2.2532,2.2543,2.2552,2.2559,2.2555,2.2433,0,0,0,0,0,2.2238,2.2275,2.2298,2.2352,2.2364,2.2377,2.2398,2.2398,2.2423,2.2433,2.245,2.2474,2.2508,2.2531,2.2564,2.2627,2.2632,2.2655,2.2662,2.2668,2.2673,2.2706,2.2716,2.2611,2.2611,2.261,0,0,2.2266,2.2286,2.231,2.2357,2.2377,2.2414,2.2386,2.2427,2.2454,2.2439,2.2491,2.2503,2.2531,2.2589,2.2615,2.2601,2.2704,2.2674,2.2678,2.2681,2.2712,2.2722,2.2731,2.2614,2.2613,2.2613,0,0,2.2335,2.2355,2.2401,2.242,2.245,2.2457,2.2468,2.2495,2.2503,2.2555,2.2544,2.2576,2.2636,2.2655,2.2673,2.2748,2.2738,2.2758,2.2796,2.2827,2.2836,2.2843,2.2869,2.2878,2.2764,2.2765,2.2765,0,2.2365,2.2422,2.2425,2.2467,2.2487,2.2476,2.2522,2.254,2.2579,2.2593,2.2577,2.265,2.2668,2.273,2.2748,2.2763,2.2774,2.2755,2.2834,2.2842,2.2849,2.2873,2.2883,2.2767,2.2767,2.2766,2.2766,0,2.2457,2.2497,2.253,2.2567,2.2592,2.2635,2.2644,2.2668,2.2665,2.2674,2.2726,2.2747,2.2783,2.2797,2.2796,2.2858,2.2849,2.2834,2.2805,2.2861,2.2884,2.2893,2.277,2.2769,2.2769,2.2768,0,0,2.2545,2.2583,2.2595,2.2612,2.2643,2.2673,2.2715,2.275,2.277,2.2797,2.2831,2.2881,2.2867,2.2887,2.2888,2.2916,2.2972,2.2897,2.2897,2.2909,2.304,2.3051,2.3062,2.2965,2.2967,2.2969,2.3038,0,2.2616,2.2691,2.2694,2.2762,2.2798,2.2787,2.2823,2.2845,2.2855,2.2885,2.2895,2.293,2.2909,2.2921,2.2948,2.2959,2.2998,2.2954,2.2996,2.2998,2.2989,2.3074,2.3086,2.315,2.3047,2.3048,2.3049,0,2.2709,2.2739,2.281,2.2835,2.285,2.2883,2.2915,2.2945,2.2969,2.2973,2.2995,2.2991,2.3033,2.3003,2.3059,2.3029,2.3046,2.3054,2.3057,2.306,2.3027,2.3079,2.3171,2.318,2.3064,2.3063,2.3062,0,2.2765,2.2822,2.2872,2.2886,2.2917,2.294,2.2953,2.2976,2.2997,2.3025,2.3038,2.307,2.3087,2.3112,2.3115,2.3094,2.3172,2.3142,2.3175,2.3175,2.3192,2.3191,2.3287,2.3205,2.3205,2.3204,2.3204,0,2.2843,2.2887,2.2897,2.2928,2.2976,2.2979,2.3026,2.3037,2.3057,2.3089,2.3082,2.3111,2.3115,2.3145,2.3149,2.3194,2.3202,2.3206,2.3206,2.3206,2.3206,2.3217,2.3212,2.3207,2.3206,2.3206,2.3205,0,2.2913,2.2922,2.2976,2.3,2.3007,2.3041,2.3061,2.309,2.3097,2.3137,2.3147,2.3159,2.3194,2.3201,2.3242,2.3244,2.3298,2.3294,2.329,2.3289,2.3321,2.3318,2.3428,2.3442,2.3351,2.3352,2.3353,0,2.2963,2.2996,2.3024,2.3044,2.3059,2.3093,2.3114,2.3117,2.3139,2.3169,2.3193,2.3228,2.3255,2.3312,2.3323,2.3355,2.3351,2.3387,2.3355,2.3354,2.335,2.3348,2.335,2.3393,2.3394,2.3395,2.3395,0,2.3048,2.3051,2.3082,2.3114,2.3139,2.3165,2.3189,2.3206,2.3212,2.3237,2.3273,2.3294,2.3336,2.337,2.3401,2.3413,2.3405,2.3405,2.3414,2.3414,2.341,2.3412,2.3306,2.3403,2.3402,2.3401,2.3401,2.3401,2.3109,2.3137,2.3161,2.3195,2.3213,2.3236,2.3263,2.3275,2.3305,2.334,2.3339,2.3378,2.34,2.3441,2.3456,2.3485,2.3473,2.3487,2.349,2.3493,2.3496,2.3406,2.3491,2.3491,2.349,2.349,2.349,0,2.3193,2.3208,2.3239,2.3273,2.3299,2.329,2.3315,2.3338,2.3373,2.3394,2.3421,2.3462,2.3494,2.3508,2.354,2.356,2.3557,2.3569,2.3567,2.3569,2.3505,2.3494,2.357,2.357,2.357,2.357,2.357,2.357,2.324,2.3287,2.3292,2.3348,2.3362,2.3401,2.3416,2.3436,2.3453,2.3499,2.3526,2.3535,2.3553,2.3585,2.3614,2.3617,2.3628,2.3641,2.3643,2.3582,2.3574,2.3566,2.3555,2.3644,2.3644,2.3704,2.3705,2.3705]}]]